Location: Unspecified
(43.4680°N, 87.1740°E)
Time: 21:19:16
(UTC+00:00)

Cosmos 2098 Rocket - Pass Details

Date: 17 April 2021
Orbit: 367 x 1178 km, 82.9° (Epoch: 12 May)

Event Time Altitude Azimuth Distance (km) Brightness Sun altitude
Rises 13:44:52 0° 355° (N) 3,803 7.5 -9.0°
Reaches altitude 10° 13:47:24 10° 359° (N) 2,929 6.8 -9.4°
Maximum altitude 13:54:20 59° 79° (E) 1,322 4.5 -10.6°
Drops below altitude 10° 14:01:37 10° 158° (SSE) 3,085 6.2 -11.8°
Enters shadow 14:03:26 - 161° (SSE) 3,706 6.6 -12.1°
